Wind_Speed
41 41 40 39 38 36 34 33 32 32 30 27 27 26 25 22 22 22 20 20 19 20 21 22 21 21 21 22 22 22 20 22 24 23 23 25 26 27 27 28 28 31 30 26 25
42 44 44 43 41 40 39 38 37 35 34 31 31 30 30 27 25 24 25 23 23 23 25 25 25 24 25 26 27 26 24 27 28 27 27 28 30 30 29 29 32 34 31 29 29
45 45 47 47 47 45 44 43 42 39 38 37 35 36 34 31 30 29 29 28 28 27 28 28 28 29 28 30 31 30 27 33 30 30 32 34 34 32 30 28 36 34 33 33 33
56 54 51 51 51 50 48 48 46 45 44 42 39 39 39 37 34 32 33 31 30 30 29 28 28 31 32 33 33 32 31 32 31 31 32 34 33 35 29 32 34 33 34 36 37
48 51 58 59 56 55 53 53 51 49 48 47 45 43 42 40 37 38 36 36 34 33 33 31 30 31 32 32 34 33 32 33 33 31 33 34 34 36 29 37 33 35 36 37 38
56 52 53 54 60 63 60 58 56 55 52 52 51 48 46 42 40 41 39 38 38 36 36 35 34 33 33 33 35 32 33 34 33 35 36 35 35 35 35 36 37 37 37 39 40
64 62 59 54 55 59 64 66 63 59 58 56 56 54 50 45 44 43 40 40 40 39 39 40 38 37 35 35 35 34 34 35 35 38 39 38 36 34 38 38 40 40 40 41 42
64 67 64 64 59 58 59 64 66 68 64 62 61 60 56 51 50 46 43 42 43 43 43 42 41 40 38 37 37 38 39 36 36 38 39 40 36 37 38 40 41 41 43 45 46
70 66 68 67 65 63 61 60 63 61 68 70 67 65 61 57 53 51 49 47 46 46 44 44 44 42 40 39 39 41 41 39 39 38 39 39 37 38 41 42 41 43 45 45 44
71 69 67 67 67 65 64 62 62 63 64 57 64 67 66 61 57 55 53 50 48 47 46 45 45 44 43 39 42 44 43 42 40 38 39 39 38 41 43 42 42 43 44 44 44
71 72 68 67 65 67 66 64 66 68 64 64 58 55 61 61 62 60 57 55 53 51 48 47 48 46 42 47 47 45 44 43 41 41 40 40 39 41 42 43 43 43 43 44 46
68 68 67 68 68 67 70 68 71 66 68 63 65 61 56 57 56 55 55 55 55 55 53 52 50 47 51 49 46 45 44 42 42 42 42 41 39 42 40 41 40 42 43 45 48
61 61 64 66 68 69 69 69 68 66 70 68 62 63 58 56 53 51 54 53 50 50 50 51 49 52 50 47 46 44 43 42 43 42 42 42 42 41 40 39 40 42 44 45 45
57 59 59 62 64 67 67 69 68 62 74 74 67 63 64 59 57 51 48 47 50 48 47 49 47 46 47 45 45 44 42 42 43 44 44 42 46 40 38 38 41 43 44 43 44
57 57 56 56 62 65 64 65 63 51 54 72 68 64 64 63 65 58 53 49 47 47 49 48 47 47 47 45 44 44 42 42 44 45 45 43 45 39 36 38 41 42 41 42 44
53 52 54 55 53 59 61 62 63 64 59 64 61 51 61 58 59 57 56 57 53 52 51 51 51 50 49 46 45 44 44 44 46 46 47 43 41 37 36 38 39 39 39 41 43
44 42 49 50 49 52 55 60 56 64 64 53 59 62 56 54 53 53 52 51 55 54 52 51 51 49 47 46 46 44 43 46 47 46 46 40 39 35 36 36 36 36 38 39 40
35 43 46 45 47 44 48 49 52 57 68 63 59 56 40 46 50 49 47 49 51 51 50 50 49 48 47 46 44 43 44 46 46 46 42 37 38 35 35 34 34 35 37 37 36
31 36 46 47 46 47 47 55 54 57 54 58 51 65 60 48 45 44 46 43 43 47 49 50 49 47 44 42 42 42 43 41 40 41 39 37 34 34 32 32 33 35 34 34 34
25 29 28 53 50 51 53 59 51 53 58 63 61 55 55 54 48 47 47 43 41 43 44 45 46 43 41 39 40 41 39 38 40 38 37 35 33 32 31 30 33 34 32 33 33
30 24 25 33 51 55 51 57 57 38 41 45 65 59 55 53 46 45 49 44 47 43 45 45 44 42 41 40 39 39 40 41 40 40 39 35 34 33 31 32 33 33 30 30 32
29 28 24 23 35 50 57 52 60 60 32 35 42 39 57 59 57 44 43 42 46 49 47 45 43 42 42 41 42 42 42 43 42 41 37 36 34 35 31 32 33 32 29 29 30
22 22 22 22 31 33 39 52 45 47 58 38 36 43 38 44 58 60 42 42 45 45 44 44 49 46 44 43 44 43 42 43 41 41 38 35 32 31 33 34 33 30 27 30 30
24 20 20 19 23 27 30 35 39 31 33 43 32 40 42 44 42 50 44 39 37 45 42 44 41 44 45 43 44 44 40 39 41 39 33 31 31 33 35 35 34 29 29 29 30
20 23 20 18 20 24 28 34 37 37 32 37 33 36 37 36 34 49 43 40 39 38 39 42 41 42 48 47 46 41 39 38 38 32 33 30 32 35 36 36 32 32 30 29 29
20 17 15 15 20 24 30 31 39 41 35 31 35 37 36 30 42 50 52 40 42 41 41 39 42 45 47 48 46 41 41 42 38 35 34 34 34 35 38 34 33 33 31 31 30
21 18 14 13 17 22 25 29 36 43 43 38 39 37 37 39 40 47 50 48 47 46 46 45 45 45 46 46 46 45 41 39 35 35 34 35 32 37 36 36 34 33 32 31 30
Wind_Direction
260 258 255 255 256 255 254 251 250 254 253 253 253 252 251 247 246 250 246 246 243 248 250 254 256 258 259 259 258 258 262 263 264 266 265 268 271 274 278 278 278 277 278 277 275
259 257 255 254 253 255 255 252 252 251 253 253 254 253 251 248 248 249 248 249 248 250 256 256 257 257 259 263 262 262 263 263 264 266 266 266 267 270 273 276 276 272 274 276 276
258 259 257 255 253 251 252 254 253 252 251 251 252 254 254 250 248 248 248 250 253 253 256 258 262 263 263 263 265 266 265 266 268 267 266 266 268 269 271 272 267 273 279 279 275
255 255 256 257 254 252 251 250 251 251 252 252 250 251 254 254 252 250 254 252 251 253 256 259 262 267 268 268 268 267 265 264 266 264 264 265 267 268 267 263 266 275 275 276 277
259 260 255 252 254 253 251 250 250 249 250 252 252 252 250 250 256 252 252 255 254 252 254 258 262 265 266 267 268 269 267 267 266 267 266 267 268 269 269 265 269 269 270 273 275
264 258 258 258 253 250 250 250 249 250 248 250 252 252 254 254 251 255 255 255 257 256 256 257 259 262 266 267 265 266 268 268 269 269 269 268 265 267 265 269 270 269 271 273 275
261 260 260 256 256 256 252 248 247 247 248 249 250 252 252 253 253 255 255 256 255 257 257 257 259 260 262 264 266 264 262 264 266 267 267 266 264 265 267 268 270 273 275 277 278
264 258 255 256 255 253 254 251 250 246 246 247 248 250 251 250 253 255 256 256 257 256 256 256 256 258 260 262 263 261 262 263 261 263 267 269 269 267 267 269 272 276 279 278 276
261 257 253 251 250 253 253 252 252 247 251 247 246 248 250 251 253 255 255 255 255 255 254 255 255 256 258 261 262 263 264 262 261 261 263 264 266 267 269 272 277 278 277 278 278
259 254 249 247 248 248 249 251 252 249 244 244 251 251 252 252 252 254 254 254 254 254 254 253 254 255 256 260 264 261 262 264 262 260 261 263 266 268 271 274 275 275 275 273 273
259 254 249 245 246 246 248 245 248 248 247 245 242 248 252 250 251 249 248 247 247 248 250 251 253 257 258 257 261 261 262 263 264 264 264 265 266 268 272 276 276 274 273 274 276
259 257 252 248 246 246 245 245 244 248 247 246 247 242 245 248 248 248 249 251 251 248 244 247 252 253 256 257 256 258 260 262 263 264 265 266 268 271 274 273 272 272 274 277 280
261 260 255 250 246 245 248 247 247 244 248 244 243 245 248 245 245 245 247 246 248 251 252 251 252 252 251 251 254 255 257 260 262 263 265 269 270 272 273 271 273 275 278 282 283
264 260 257 254 249 245 246 246 246 242 249 245 242 241 240 243 243 242 242 243 244 246 247 247 246 247 249 252 254 255 256 258 260 264 267 270 273 272 268 269 274 277 282 284 287
264 260 259 254 250 248 248 246 244 232 254 247 243 241 241 242 245 245 244 241 241 242 240 245 245 247 248 250 252 253 253 257 261 264 267 269 271 271 265 271 275 280 284 287 291
262 259 256 252 250 247 246 244 241 233 244 245 241 242 242 243 244 247 247 248 246 245 245 245 248 249 249 249 249 251 255 258 261 263 266 269 266 265 269 275 279 281 284 290 294
257 247 249 249 244 245 242 240 236 227 233 237 240 243 248 244 243 244 247 245 247 246 245 245 246 248 247 247 248 252 256 260 261 263 267 262 259 266 271 276 278 280 287 292 297
257 238 232 242 240 236 235 230 230 234 229 237 233 237 241 238 240 242 244 242 238 238 242 244 245 245 246 248 251 252 254 257 259 261 259 255 261 268 273 276 276 280 286 292 296
261 238 239 231 235 232 230 216 220 224 232 227 234 235 240 242 243 240 243 239 237 238 241 243 243 242 244 244 245 249 251 255 254 252 253 258 264 269 274 276 275 279 287 293 296
240 239 246 234 226 238 233 219 217 223 225 234 235 230 232 234 239 241 240 234 234 233 234 236 236 236 238 241 245 249 249 245 247 252 256 260 268 272 276 272 274 281 289 291 300
240 246 247 247 244 233 228 224 220 216 217 233 238 242 235 232 230 236 238 237 236 234 232 232 231 234 237 241 246 248 249 244 247 252 258 263 268 270 276 270 273 279 288 292 298
240 253 245 263 242 241 231 226 226 225 213 220 222 236 239 238 233 234 232 240 235 232 234 236 235 236 237 240 243 244 244 247 252 256 257 261 264 274 277 267 269 278 286 292 297
224 239 251 258 250 242 238 238 242 236 219 228 225 216 221 229 241 238 242 239 234 232 234 238 235 235 237 242 247 251 251 253 252 251 253 258 271 279 267 266 270 278 285 292 296
213 234 253 263 255 237 234 230 233 236 242 235 240 232 230 230 232 231 237 232 238 236 236 239 241 241 242 244 246 247 248 247 248 251 255 262 268 271 266 266 268 276 281 288 293
222 232 242 261 248 237 229 221 216 211 208 218 221 232 229 224 224 230 231 230 233 239 237 240 244 249 244 245 243 246 249 251 252 254 254 260 266 269 265 264 270 273 277 284 288
223 227 239 256 240 232 226 221 215 209 209 204 220 224 220 227 224 226 229 231 235 234 236 241 243 245 249 251 248 247 251 248 246 248 256 262 263 267 264 267 268 271 276 281 284
210 217 234 249 238 235 227 220 217 217 216 213 213 209 214 225 229 230 228 228 233 236 236 236 241 244 246 248 250 252 250 243 241 247 257 261 265 264 267 268 269 271 274 278 280
Height
5761 5761 5761 5761 5762 5761 5760 5759 5760 5762 5760 5760 5762 5762 5764 5763 5763 5767 5765 5768 5767 5770 5772 5773 5773 5773 5774 5774 5774 5775 5778 5778 5777 5779 5780 5778 5778 5778 5779 5780 5780 5778 5778 5781 5781
5752 5752 5752 5753 5752 5753 5753 5753 5754 5753 5754 5753 5756 5756 5757 5757 5759 5760 5761 5761 5762 5764 5767 5767 5768 5768 5769 5770 5771 5771 5773 5772 5772 5773 5774 5773 5772 5773 5773 5774 5773 5771 5773 5774 5774
5741 5742 5743 5743 5743 5743 5744 5745 5746 5745 5745 5746 5747 5750 5751 5751 5753 5754 5755 5755 5756 5758 5759 5761 5762 5763 5763 5764 5765 5766 5768 5764 5767 5767 5767 5767 5768 5768 5769 5770 5764 5766 5768 5767 5767
5730 5730 5731 5733 5733 5733 5734 5735 5735 5737 5738 5738 5737 5739 5744 5746 5747 5748 5748 5749 5749 5751 5753 5753 5754 5756 5757 5758 5757 5759 5759 5758 5759 5759 5760 5760 5761 5761 5763 5762 5761 5762 5761 5760 5759
5716 5717 5719 5720 5721 5722 5722 5724 5725 5725 5727 5729 5729 5731 5733 5736 5741 5739 5741 5743 5743 5743 5745 5746 5746 5747 5749 5750 5750 5751 5752 5751 5751 5752 5752 5753 5753 5752 5757 5752 5755 5754 5753 5752 5751
5705 5703 5704 5705 5706 5708 5710 5710 5713 5716 5715 5718 5720 5720 5723 5728 5728 5729 5733 5734 5736 5736 5737 5738 5739 5739 5740 5742 5742 5744 5744 5744 5744 5744 5744 5745 5744 5744 5745 5745 5744 5745 5745 5744 5743
5688 5690 5690 5689 5691 5692 5694 5696 5700 5700 5703 5705 5707 5710 5712 5720 5718 5721 5722 5724 5726 5727 5728 5729 5730 5731 5732 5733 5734 5735 5736 5735 5736 5735 5735 5736 5737 5737 5735 5735 5734 5735 5735 5735 5734
5670 5670 5672 5674 5675 5677 5679 5681 5684 5686 5687 5690 5693 5696 5699 5705 5707 5711 5712 5714 5716 5717 5718 5719 5720 5722 5723 5724 5726 5727 5727 5729 5728 5727 5727 5728 5730 5728 5727 5726 5727 5727 5726 5725 5722
5647 5650 5652 5654 5658 5661 5663 5666 5668 5669 5673 5675 5679 5681 5687 5693 5697 5698 5700 5702 5704 5706 5707 5709 5710 5712 5714 5715 5716 5717 5718 5719 5718 5718 5718 5719 5720 5718 5717 5718 5719 5717 5716 5714 5713
5625 5628 5630 5634 5638 5641 5646 5649 5651 5652 5655 5658 5662 5669 5673 5681 5683 5685 5687 5690 5692 5695 5696 5698 5700 5702 5705 5707 5707 5706 5707 5708 5709 5710 5708 5709 5711 5708 5708 5710 5709 5707 5706 5704 5703
5603 5605 5609 5613 5619 5623 5629 5632 5633 5634 5639 5646 5648 5652 5657 5661 5665 5669 5672 5675 5679 5682 5685 5686 5689 5694 5697 5693 5694 5697 5698 5698 5699 5699 5699 5700 5701 5699 5699 5699 5698 5696 5695 5693 5691
5582 5583 5587 5593 5600 5605 5607 5614 5615 5619 5622 5628 5631 5636 5643 5646 5651 5654 5658 5662 5666 5670 5671 5674 5679 5683 5680 5683 5684 5685 5687 5689 5688 5688 5689 5689 5691 5689 5690 5688 5688 5686 5684 5682 5680
5560 5563 5566 5572 5579 5585 5590 5596 5601 5605 5601 5607 5618 5622 5629 5633 5635 5641 5645 5648 5653 5656 5659 5663 5669 5668 5670 5672 5673 5675 5676 5678 5678 5678 5678 5679 5680 5680 5680 5679 5677 5675 5674 5672 5669
5540 5543 5548 5553 5560 5565 5572 5578 5584 5590 5581 5585 5599 5607 5614 5618 5621 5629 5632 5637 5640 5646 5647 5649 5654 5658 5659 5662 5664 5665 5667 5667 5667 5668 5668 5669 5666 5672 5671 5670 5667 5665 5663 5661 5658
5522 5524 5530 5533 5541 5549 5557 5563 5570 5573 5560 5572 5581 5591 5601 5603 5614 5618 5621 5624 5629 5632 5636 5642 5644 5646 5648 5652 5652 5655 5656 5657 5658 5657 5657 5660 5655 5663 5662 5660 5657 5655 5653 5651 5648
5506 5509 5511 5516 5526 5530 5539 5546 5552 5554 5547 5556 5569 5575 5584 5592 5599 5604 5606 5612 5616 5620 5624 5628 5632 5635 5638 5640 5641 5644 5646 5647 5647 5647 5646 5651 5648 5653 5653 5651 5648 5646 5644 5641 5638
5490 5493 5495 5501 5510 5514 5521 5527 5532 5529 5541 5548 5558 5567 5572 5579 5586 5590 5594 5599 5604 5608 5612 5617 5620 5624 5627 5629 5631 5634 5636 5636 5636 5637 5638 5640 5639 5645 5643 5641 5639 5637 5635 5632 5629
5476 5479 5485 5489 5492 5499 5503 5511 5510 5520 5530 5537 5550 5554 5561 5567 5572 5578 5581 5585 5590 5596 5601 5604 5608 5613 5617 5619 5622 5623 5625 5626 5625 5627 5630 5630 5630 5635 5634 5632 5631 5629 5627 5624 5620
5465 5469 5474 5476 5480 5485 5489 5490 5499 5508 5517 5527 5536 5541 5549 5556 5562 5567 5571 5576 5580 5586 5590 5593 5595 5600 5604 5607 5610 5613 5614 5617 5616 5617 5618 5621 5624 5626 5625 5623 5622 5621 5619 5616 5612
5453 5459 5464 5462 5468 5472 5475 5483 5493 5500 5508 5514 5521 5528 5537 5547 5551 5558 5561 5567 5571 5576 5579 5582 5585 5589 5593 5597 5600 5602 5607 5606 5606 5609 5611 5613 5614 5616 5615 5614 5614 5613 5611 5608 5604
5446 5450 5453 5454 5454 5458 5464 5475 5484 5491 5496 5503 5510 5516 5525 5533 5540 5547 5550 5556 5560 5564 5569 5571 5575 5581 5584 5588 5591 5594 5596 5597 5599 5601 5602 5605 5607 5607 5607 5606 5605 5605 5604 5600 5596
5437 5442 5445 5445 5445 5448 5456 5467 5474 5481 5487 5495 5501 5507 5514 5521 5529 5535 5539 5544 5549 5552 5557 5561 5563 5569 5575 5578 5581 5584 5586 5587 5589 5593 5595 5596 5600 5598 5599 5597 5597 5598 5596 5593 5588
5427 5434 5437 5437 5436 5441 5448 5455 5462 5470 5478 5486 5491 5498 5504 5511 5517 5521 5527 5533 5537 5542 5545 5551 5554 5559 5564 5569 5572 5575 5578 5579 5581 5583 5585 5587 5592 5591 5589 5588 5589 5589 5587 5585 5580
5422 5426 5430 5430 5431 5436 5440 5447 5453 5463 5469 5477 5483 5489 5496 5501 5504 5512 5517 5522 5526 5533 5536 5541 5545 5551 5557 5560 5563 5565 5568 5569 5572 5574 5578 5581 5582 5581 5580 5580 5581 5582 5580 5577 5573
5416 5421 5424 5425 5427 5430 5434 5440 5446 5456 5462 5470 5475 5480 5485 5490 5493 5499 5506 5512 5518 5522 5526 5532 5537 5542 5545 5549 5551 5555 5558 5559 5563 5568 5568 5574 5574 5572 5571 5571 5572 5573 5572 5570 5567
5411 5417 5419 5420 5422 5425 5427 5434 5440 5447 5453 5460 5466 5470 5474 5478 5483 5490 5498 5502 5507 5512 5516 5522 5527 5531 5535 5539 5541 5546 5549 5551 5555 5558 5562 5564 5565 5563 5563 5564 5563 5563 5563 5562 5560
5406 5412 5415 5417 5418 5420 5423 5427 5432 5437 5444 5449 5455 5461 5465 5469 5475 5481 5487 5492 5498 5502 5508 5514 5517 5521 5525 5529 5532 5537 5543 5544 5547 5551 5553 5554 5557 5553 5555 5556 5555 5555 5555 5554 5553